QPF
0.10 0.08 0.07 0.06 0.05 0.05 0.04 0.05 0.05 0.03 0.04 0.04 0.04 0.03 0.03 0.03 0.03 0.03 0.03 0.03 0.03 0.03 0.03 0.03 0.02 0.02 0.04 0.05 0.04 0.04 0.04 0.04 0.04 0.03 0.03 0.03 0.03 0.03 0.04 0.05 0.07 0.06 0.04
0.09 0.13 0.11 0.08 0.08 0.07 0.04 0.04 0.04 0.03 0.03 0.02 0.02 0.02 0.02 0.04 0.03 0.02 0.02 0.03 0.02 0.02 0.02 0.02 0.02 0.02 0.03 0.03 0.03 0.03 0.04 0.04 0.05 0.05 0.04 0.04 0.04 0.04 0.04 0.07 0.07 0.05 0.04
0.06 0.10 0.12 0.13 0.09 0.06 0.04 0.03 0.03 0.03 0.02 0.03 0.03 0.02 0.02 0.02 0.02 0.02 0.02 0.02 0.02 0.02 0.02 0.02 0.03 0.03 0.02 0.02 0.02 0.02 0.03 0.04 0.04 0.05 0.07 0.09 0.08 0.05 0.05 0.05 0.06 0.06 0.07
0.05 0.06 0.07 0.09 0.08 0.06 0.05 0.02 0.02 0.02 0.03 0.03 0.03 0.02 0.02 0.02 0.03 0.02 0.01 0.01 0.01 0.01 0.01 0.02 0.03 0.04 0.03 0.02 0.02 0.02 0.02 0.03 0.03 0.04 0.05 0.06 0.07 0.07 0.07 0.06 0.06 0.06 0.07
0.02 0.03 0.03 0.04 0.05 0.05 0.04 0.03 0.03 0.03 0.04 0.04 0.04 0.04 0.03 0.03 0.03 0.02 0.01 0.01 0.01 0.01 0.01 0.01 0.01 0.02 0.02 0.02 0.02 0.02 0.02 0.02 0.03 0.04 0.05 0.05 0.06 0.07 0.08 0.09 0.10 0.09 0.08
0.01 0.01 0.02 0.02 0.02 0.02 0.03 0.03 0.03 0.04 0.03 0.03 0.03 0.04 0.04 0.04 0.03 0.02 0.02 0.01 0.02 0.02 0.01 0.01 0.01 0.01 0.01 0.01 0.02 0.02 0.02 0.02 0.02 0.03 0.04 0.05 0.07 0.07 0.07 0.09 0.09 0.09 0.09
0.01 0.01 0.02 0.02 0.02 0.02 0.02 0.02 0.02 0.03 0.03 0.03 0.03 0.03 0.03 0.04 0.04 0.03 0.02 0.02 0.01 0.01 0.01 0.01 0.01 0.01 0.01 0.01 0.01 0.02 0.02 0.02 0.02 0.03 0.04 0.06 0.07 0.07 0.08 0.08 0.09 0.09 0.10
0.01 0.02 0.02 0.02 0.03 0.02 0.02 0.03 0.03 0.03 0.03 0.03 0.02 0.02 0.02 0.02 0.03 0.03 0.02 0.01 0.01 0.01 0.01 0.01 0.01 0.01 0.01 0.01 0.01 0.01 0.02 0.03 0.02 0.02 0.02 0.04 0.06 0.08 0.09 0.09 0.11 0.11 0.10
0.02 0.03 0.03 0.03 0.03 0.03 0.03 0.03 0.03 0.03 0.03 0.02 0.01 0.01 0.02 0.03 0.03 0.04 0.04 0.03 0.02 0.01 0.00 0.01 0.01 0.00 0.01 0.01 0.02 0.01 0.01 0.02 0.02 0.02 0.03 0.03 0.04 0.05 0.06 0.06 0.07 0.09 0.10
0.01 0.02 0.03 0.04 0.04 0.03 0.04 0.03 0.02 0.02 0.01 0.01 0.01 0.01 0.01 0.02 0.03 0.02 0.02 0.02 0.02 0.01 0.01 0.00 0.01 0.00 0.01 0.01 0.01 0.01 0.01 0.01 0.01 0.03 0.04 0.05 0.05 0.05 0.04 0.04 0.04 0.05 0.06
0.01 0.01 0.02 0.03 0.03 0.03 0.04 0.03 0.02 0.01 0.01 0.01 0.01 0.01 0.01 0.01 0.01 0.02 0.01 0.01 0.01 0.01 0.01 0.01 0.01 0.01 0.01 0.01 0.01 0.01 0.01 0.01 0.01 0.01 0.02 0.03 0.04 0.03 0.03 0.03 0.03 0.04 0.04
0.01 0.02 0.02 0.04 0.04 0.03 0.03 0.03 0.02 0.02 0.01 0.01 0.01 0.01 0.01 0.01 0.01 0.01 0.01 0.01 0.01 0.01 0.01 0.01 0.01 0.01 0.01 0.01 0.01 0.01 0.01 0.01 0.01 0.01 0.02 0.02 0.02 0.03 0.03 0.03 0.03 0.03 0.04
0.03 0.03 0.03 0.04 0.04 0.02 0.02 0.01 0.01 0.01 0.01 0.01 0.01 0.01 0.01 0.01 0.01 0.00 0.01 0.01 0.01 0.01 0.01 0.01 0.02 0.01 0.01 0.01 0.01 0.01 0.02 0.01 0.01 0.01 0.01 0.02 0.03 0.04 0.04 0.04 0.03 0.03 0.03
0.04 0.03 0.03 0.03 0.03 0.02 0.01 0.01 0.02 0.02 0.01 0.01 0.01 0.01 0.01 0.01 0.01 0.01 0.01 0.01 0.01 0.01 0.01 0.01 0.02 0.02 0.01 0.00 0.01 0.02 0.02 0.01 0.01 0.00 0.01 0.02 0.02 0.04 0.03 0.02 0.02 0.02 0.02
0.03 0.03 0.03 0.03 0.03 0.03 0.04 0.03 0.02 0.02 0.02 0.01 0.01 0.01 0.01 0.01 0.01 0.01 0.01 0.02 0.02 0.02 0.02 0.02 0.02 0.02 0.01 0.01 0.01 0.01 0.01 0.01 0.01 0.01 0.01 0.01 0.01 0.01 0.01 0.01 0.02 0.02 0.02
0.02 0.02 0.03 0.04 0.05 0.05 0.05 0.06 0.05 0.04 0.03 0.02 0.02 0.01 0.01 0.01 0.01 0.01 0.02 0.02 0.02 0.03 0.03 0.01 0.02 0.02 0.01 0.01 0.02 0.02 0.01 0.02 0.02 0.01 0.01 0.01 0.01 0.01 0.01 0.01 0.01 0.02 0.03
0.01 0.01 0.03 0.05 0.07 0.06 0.06 0.05 0.04 0.03 0.03 0.03 0.03 0.02 0.01 0.01 0.01 0.01 0.02 0.03 0.04 0.03 0.02 0.02 0.03 0.03 0.02 0.02 0.02 0.02 0.01 0.01 0.01 0.02 0.02 0.01 0.00 0.01 0.02 0.03 0.03 0.04 0.04
0.02 0.03 0.04 0.05 0.06 0.08 0.07 0.05 0.03 0.02 0.02 0.03 0.04 0.03 0.03 0.02 0.01 0.02 0.03 0.04 0.04 0.03 0.03 0.03 0.03 0.03 0.02 0.02 0.02 0.02 0.02 0.02 0.01 0.01 0.01 0.01 0.01 0.01 0.03 0.05 0.06 0.07 0.07
0.04 0.04 0.05 0.05 0.05 0.05 0.07 0.07 0.05 0.03 0.03 0.04 0.04 0.03 0.03 0.03 0.03 0.03 0.03 0.03 0.03 0.03 0.02 0.02 0.02 0.03 0.02 0.02 0.01 0.01 0.02 0.02 0.02 0.02 0.02 0.02 0.01 0.02 0.03 0.05 0.07 0.08 0.08
0.03 0.04 0.05 0.04 0.04 0.03 0.04 0.07 0.08 0.07 0.05 0.05 0.05 0.04 0.04 0.04 0.03 0.02 0.02 0.02 0.02 0.02 0.01 0.02 0.02 0.02 0.02 0.02 0.02 0.02 0.02 0.03 0.03 0.03 0.03 0.03 0.03 0.03 0.04 0.05 0.06 0.08 0.09
0.04 0.05 0.06 0.05 0.04 0.04 0.03 0.05 0.07 0.07 0.05 0.05 0.05 0.05 0.04 0.02 0.01 0.02 0.02 0.02 0.01 0.01 0.02 0.02 0.01 0.01 0.01 0.02 0.02 0.03 0.02 0.02 0.03 0.03 0.05 0.05 0.06 0.05 0.05 0.05 0.06 0.07 0.08
0.04 0.06 0.08 0.08 0.06 0.05 0.03 0.03 0.05 0.06 0.05 0.05 0.06 0.04 0.03 0.01 0.01 0.01 0.01 0.01 0.01 0.01 0.01 0.01 0.01 0.01 0.01 0.02 0.02 0.04 0.04 0.02 0.02 0.03 0.05 0.06 0.06 0.05 0.05 0.05 0.05 0.05 0.05
0.04 0.05 0.07 0.08 0.08 0.07 0.05 0.03 0.03 0.04 0.04 0.04 0.04 0.03 0.03 0.01 0.01 0.01 0.01 0.01 0.01 0.01 0.00 0.01 0.01 0.01 0.01 0.02 0.02 0.03 0.03 0.02 0.02 0.03 0.04 0.04 0.05 0.05 0.04 0.04 0.04 0.04 0.04
0.04 0.06 0.07 0.08 0.08 0.08 0.07 0.04 0.03 0.03 0.03 0.04 0.04 0.04 0.03 0.01 0.01 0.01 0.01 0.01 0.01 0.01 0.01 0.01 0.01 0.01 0.02 0.02 0.02 0.02 0.02 0.02 0.02 0.02 0.02 0.02 0.02 0.02 0.02 0.02 0.02 0.02 0.02
0.06 0.06 0.06 0.06 0.07 0.06 0.06 0.04 0.02 0.02 0.02 0.03 0.03 0.03 0.01 0.01 0.01 0.00 0.00 0.00 0.00 0.00 0.01 0.00 0.00 0.01 0.02 0.02 0.03 0.03 0.01 0.01 0.01 0.01 0.01 0.01 0.01 0.01 0.00 0.01 0.01 0.01 0.01
0.05 0.07 0.07 0.06 0.06 0.06 0.05 0.03 0.02 0.02 0.01 0.02 0.01 0.01 0.01 0.01 0.00 0.00 0.00 0.00 0.00 0.00 0.00 0.00 0.00 0.00 0.02 0.02 0.03 0.02 0.01 0.00 0.00 0.00 0.01 0.00 0.00 0.00 0.00 0.00 0.00 0.00 0.01
MSLP
1013.07 1013.65 1014.17 1014.57 1014.84 1014.99 1015.07 1015.11 1015.16 1015.26 1015.42 1015.64 1015.90 1016.17 1016.42 1016.62 1016.77 1016.88 1016.94 1017.00 1017.06 1017.16 1017.29 1017.46 1017.67 1017.89 1018.11 1018.31 1018.48 1018.59 1018.64 1018.64 1018.58 1018.48 1018.36 1018.23 1018.11 1018.03 1018.00 1018.03 1018.11 1018.22 1018.35
1012.24 1012.87 1013.46 1013.95 1014.32 1014.57 1014.72 1014.82 1014.90 1015.01 1015.17 1015.38 1015.62 1015.88 1016.12 1016.33 1016.49 1016.60 1016.68 1016.74 1016.81 1016.90 1017.04 1017.21 1017.43 1017.67 1017.91 1018.13 1018.33 1018.47 1018.55 1018.57 1018.54 1018.46 1018.35 1018.23 1018.14 1018.07 1018.06 1018.09 1018.17 1018.26 1018.36
1011.36 1012.04 1012.71 1013.30 1013.78 1014.14 1014.39 1014.55 1014.68 1014.81 1014.97 1015.16 1015.39 1015.64 1015.88 1016.09 1016.27 1016.40 1016.50 1016.59 1016.67 1016.78 1016.92 1017.10 1017.32 1017.56 1017.81 1018.05 1018.26 1018.42 1018.53 1018.57 1018.57 1018.51 1018.43 1018.35 1018.28 1018.23 1018.24 1018.28 1018.36 1018.44 1018.51
1010.61 1011.32 1012.06 1012.76 1013.35 1013.81 1014.15 1014.39 1014.57 1014.72 1014.88 1015.06 1015.27 1015.51 1015.74 1015.97 1016.16 1016.33 1016.47 1016.59 1016.71 1016.83 1016.99 1017.16 1017.38 1017.61 1017.85 1018.08 1018.29 1018.46 1018.58 1018.65 1018.67 1018.64 1018.59 1018.54 1018.49 1018.48 1018.50 1018.55 1018.63 1018.71 1018.76
1010.14 1010.87 1011.66 1012.43 1013.11 1013.66 1014.08 1014.39 1014.60 1014.78 1014.93 1015.10 1015.30 1015.52 1015.75 1015.99 1016.21 1016.41 1016.59 1016.75 1016.90 1017.05 1017.21 1017.38 1017.58 1017.78 1018.00 1018.21 1018.40 1018.57 1018.69 1018.77 1018.81 1018.80 1018.78 1018.74 1018.72 1018.72 1018.76 1018.82 1018.90 1018.98 1019.03
1010.02 1010.76 1011.57 1012.37 1013.11 1013.72 1014.20 1014.55 1014.79 1014.97 1015.13 1015.28 1015.46 1015.67 1015.90 1016.15 1016.39 1016.63 1016.84 1017.04 1017.22 1017.38 1017.54 1017.70 1017.87 1018.04 1018.21 1018.38 1018.55 1018.69 1018.80 1018.88 1018.92 1018.93 1018.91 1018.89 1018.88 1018.89 1018.93 1019.00 1019.09 1019.19 1019.26
1010.27 1010.97 1011.77 1012.57 1013.32 1013.95 1014.45 1014.83 1015.09 1015.28 1015.43 1015.57 1015.74 1015.93 1016.16 1016.41 1016.67 1016.93 1017.17 1017.39 1017.59 1017.76 1017.91 1018.04 1018.17 1018.29 1018.42 1018.55 1018.66 1018.77 1018.86 1018.92 1018.96 1018.96 1018.95 1018.93 1018.91 1018.92 1018.96 1019.03 1019.14 1019.27 1019.39
1010.79 1011.44 1012.18 1012.94 1013.66 1014.28 1014.78 1015.16 1015.43 1015.63 1015.78 1015.92 1016.08 1016.27 1016.50 1016.75 1017.01 1017.28 1017.53 1017.75 1017.95 1018.11 1018.24 1018.34 1018.43 1018.50 1018.58 1018.65 1018.72 1018.79 1018.84 1018.88 1018.89 1018.88 1018.86 1018.83 1018.80 1018.80 1018.83 1018.91 1019.04 1019.21 1019.40
1011.47 1012.03 1012.68 1013.37 1014.03 1014.62 1015.10 1015.48 1015.76 1015.97 1016.14 1016.30 1016.47 1016.66 1016.88 1017.12 1017.37 1017.63 1017.87 1018.08 1018.26 1018.40 1018.50 1018.56 1018.61 1018.64 1018.66 1018.68 1018.71 1018.73 1018.75 1018.75 1018.74 1018.71 1018.66 1018.61 1018.57 1018.55 1018.58 1018.67 1018.83 1019.04 1019.30
1012.16 1012.61 1013.17 1013.76 1014.35 1014.89 1015.35 1015.74 1016.04 1016.28 1016.49 1016.68 1016.87 1017.07 1017.29 1017.52 1017.76 1017.98 1018.19 1018.38 1018.52 1018.63 1018.69 1018.73 1018.73 1018.72 1018.71 1018.69 1018.67 1018.65 1018.63 1018.60 1018.56 1018.50 1018.42 1018.35 1018.29 1018.26 1018.28 1018.38 1018.56 1018.82 1019.15
1012.77 1013.12 1013.57 1014.07 1014.59 1015.08 1015.54 1015.93 1016.28 1016.58 1016.84 1017.08 1017.31 1017.53 1017.75 1017.96 1018.17 1018.36 1018.52 1018.66 1018.77 1018.84 1018.87 1018.87 1018.85 1018.82 1018.77 1018.72 1018.67 1018.62 1018.56 1018.49 1018.41 1018.32 1018.22 1018.12 1018.03 1017.99 1018.01 1018.11 1018.31 1018.61 1018.99
1013.29 1013.55 1013.90 1014.32 1014.77 1015.24 1015.69 1016.13 1016.53 1016.90 1017.23 1017.54 1017.81 1018.06 1018.28 1018.47 1018.64 1018.78 1018.90 1018.99 1019.05 1019.08 1019.09 1019.07 1019.04 1018.99 1018.92 1018.85 1018.78 1018.69 1018.60 1018.49 1018.37 1018.24 1018.11 1017.98 1017.87 1017.82 1017.83 1017.93 1018.14 1018.45 1018.87
1013.78 1013.96 1014.24 1014.59 1015.00 1015.44 1015.91 1016.39 1016.85 1017.30 1017.71 1018.07 1018.39 1018.66 1018.88 1019.05 1019.18 1019.28 1019.34 1019.38 1019.40 1019.40 1019.39 1019.37 1019.33 1019.27 1019.21 1019.12 1019.03 1018.91 1018.78 1018.63 1018.47 1018.30 1018.12 1017.96 1017.83 1017.76 1017.76 1017.85 1018.06 1018.38 1018.80
1014.33 1014.47 1014.68 1014.99 1015.36 1015.80 1016.29 1016.80 1017.32 1017.82 1018.29 1018.71 1019.07 1019.35 1019.56 1019.70 1019.79 1019.83 1019.84 1019.84 1019.83 1019.81 1019.79 1019.77 1019.73 1019.69 1019.62 1019.53 1019.41 1019.27 1019.10 1018.90 1018.69 1018.47 1018.26 1018.06 1017.90 1017.80 1017.78 1017.86 1018.05 1018.35 1018.76
1015.05 1015.16 1015.35 1015.61 1015.96 1016.39 1016.88 1017.41 1017.96 1018.50 1019.00 1019.44 1019.81 1020.08 1020.27 1020.38 1020.42 1020.41 1020.39 1020.35 1020.31 1020.28 1020.27 1020.25 1020.23 1020.19 1020.12 1020.03 1019.89 1019.72 1019.50 1019.26 1019.00 1018.73 1018.47 1018.24 1018.05 1017.92 1017.88 1017.93 1018.09 1018.36 1018.73
1016.01 1016.10 1016.27 1016.51 1016.83 1017.23 1017.70 1018.22 1018.76 1019.30 1019.79 1020.23 1020.57 1020.82 1020.97 1021.03 1021.03 1020.98 1020.92 1020.85 1020.80 1020.78 1020.76 1020.76 1020.75 1020.72 1020.66 1020.55 1020.40 1020.19 1019.94 1019.65 1019.34 1019.03 1018.73 1018.46 1018.23 1018.08 1018.00 1018.02 1018.15 1018.37 1018.68
1017.18 1017.28 1017.43 1017.64 1017.92 1018.27 1018.70 1019.17 1019.67 1020.16 1020.61 1020.99 1021.29 1021.49 1021.59 1021.60 1021.56 1021.48 1021.39 1021.31 1021.26 1021.23 1021.23 1021.24 1021.24 1021.22 1021.16 1021.04 1020.87 1020.64 1020.35 1020.03 1019.68 1019.33 1018.99 1018.69 1018.44 1018.25 1018.15 1018.14 1018.22 1018.39 1018.64
1018.48 1018.59 1018.72 1018.89 1019.12 1019.41 1019.76 1020.15 1020.58 1020.99 1021.36 1021.68 1021.91 1022.04 1022.09 1022.07 1021.99 1021.88 1021.78 1021.69 1021.64 1021.62 1021.63 1021.65 1021.67 1021.65 1021.59 1021.46 1021.28 1021.03 1020.72 1020.37 1020.00 1019.63 1019.27 1018.95 1018.68 1018.47 1018.35 1018.30 1018.34 1018.45 1018.64
1019.78 1019.89 1019.99 1020.11 1020.28 1020.49 1020.75 1021.05 1021.38 1021.70 1021.99 1022.22 1022.38 1022.46 1022.47 1022.40 1022.30 1022.19 1022.08 1021.99 1021.95 1021.94 1021.96 1021.99 1022.01 1022.00 1021.94 1021.81 1021.62 1021.36 1021.04 1020.69 1020.31 1019.93 1019.58 1019.25 1018.98 1018.76 1018.62 1018.55 1018.55 1018.61 1018.75
1020.91 1021.00 1021.07 1021.15 1021.24 1021.37 1021.55 1021.77 1022.00 1022.24 1022.45 1022.62 1022.72 1022.76 1022.73 1022.65 1022.54 1022.42 1022.32 1022.25 1022.22 1022.22 1022.25 1022.29 1022.31 1022.30 1022.24 1022.11 1021.92 1021.67 1021.36 1021.01 1020.65 1020.29 1019.94 1019.63 1019.37 1019.15 1019.00 1018.91 1018.88 1018.91 1018.99
1021.74 1021.81 1021.84 1021.87 1021.91 1021.98 1022.09 1022.24 1022.41 1022.59 1022.75 1022.87 1022.94 1022.96 1022.92 1022.84 1022.74 1022.64 1022.56 1022.51 1022.49 1022.50 1022.54 1022.58 1022.61 1022.60 1022.54 1022.42 1022.23 1021.99 1021.70 1021.38 1021.04 1020.70 1020.38 1020.09 1019.84 1019.64 1019.49 1019.39 1019.34 1019.33 1019.37
1022.23 1022.26 1022.26 1022.24 1022.24 1022.28 1022.35 1022.47 1022.61 1022.77 1022.91 1023.02 1023.09 1023.11 1023.09 1023.03 1022.96 1022.88 1022.82 1022.79 1022.79 1022.82 1022.86 1022.90 1022.93 1022.92 1022.86 1022.75 1022.57 1022.35 1022.07 1021.77 1021.46 1021.15 1020.86 1020.59 1020.37 1020.18 1020.04 1019.94 1019.88 1019.85 1019.85
1022.38 1022.38 1022.34 1022.31 1022.30 1022.33 1022.40 1022.52 1022.68 1022.84 1023.00 1023.13 1023.22 1023.26 1023.27 1023.24 1023.20 1023.15 1023.12 1023.11 1023.12 1023.16 1023.21 1023.26 1023.28 1023.27 1023.22 1023.10 1022.93 1022.72 1022.46 1022.17 1021.88 1021.59 1021.32 1021.07 1020.86 1020.69 1020.56 1020.46 1020.40 1020.35 1020.33
1022.29 1022.25 1022.20 1022.17 1022.17 1022.23 1022.33 1022.49 1022.68 1022.88 1023.07 1023.23 1023.35 1023.43 1023.46 1023.47 1023.45 1023.43 1023.43 1023.43 1023.47 1023.51 1023.57 1023.62 1023.64 1023.63 1023.57 1023.45 1023.28 1023.06 1022.80 1022.52 1022.22 1021.94 1021.67 1021.43 1021.23 1021.07 1020.95 1020.85 1020.79 1020.75 1020.71
1022.06 1022.01 1021.96 1021.95 1021.99 1022.09 1022.25 1022.46 1022.70 1022.94 1023.16 1023.36 1023.50 1023.60 1023.66 1023.68 1023.68 1023.68 1023.68 1023.71 1023.75 1023.81 1023.87 1023.92 1023.94 1023.93 1023.86 1023.73 1023.55 1023.32 1023.04 1022.74 1022.43 1022.13 1021.85 1021.60 1021.39 1021.23 1021.11 1021.02 1020.96 1020.92 1020.89
1021.83 1021.78 1021.76 1021.79 1021.88 1022.04 1022.25 1022.51 1022.79 1023.06 1023.30 1023.51 1023.65 1023.75 1023.80 1023.82 1023.82 1023.82 1023.83 1023.86 1023.91 1023.98 1024.05 1024.10 1024.13 1024.11 1024.03 1023.89 1023.69 1023.43 1023.12 1022.79 1022.45 1022.11 1021.80 1021.53 1021.31 1021.13 1021.00 1020.92 1020.86 1020.83 1020.81
Thickness
5707 5704 5701 5698 5695 5692 5690 5688 5687 5684 5683 5682 5680 5678 5676 5675 5675 5673 5671 5672 5672 5672 5672 5673 5672 5672 5673 5672 5673 5672 5672 5672 5673 5672 5672 5673 5674 5672 5671 5672 5672 5672 5671
5701 5698 5695 5692 5689 5687 5685 5683 5680 5678 5678 5676 5675 5673 5671 5670 5669 5667 5665 5664 5664 5664 5665 5663 5665 5665 5665 5664 5664 5664 5665 5665 5665 5664 5665 5664 5665 5664 5665 5663 5663 5663 5664
5699 5693 5689 5686 5684 5681 5679 5678 5674 5672 5672 5671 5670 5668 5666 5666 5664 5660 5659 5657 5657 5656 5655 5655 5655 5656 5658 5658 5657 5656 5656 5657 5657 5657 5656 5656 5655 5655 5655 5654 5654 5654 5654
5698 5692 5686 5682 5679 5676 5674 5671 5668 5667 5666 5665 5665 5663 5661 5658 5654 5653 5651 5650 5649 5648 5647 5647 5646 5647 5649 5648 5649 5649 5649 5648 5649 5649 5649 5648 5648 5645 5645 5645 5645 5645 5645
5697 5690 5686 5680 5676 5673 5670 5666 5663 5661 5659 5658 5656 5654 5653 5649 5647 5645 5642 5642 5641 5639 5638 5638 5638 5639 5640 5639 5639 5639 5640 5641 5640 5641 5641 5640 5639 5639 5637 5635 5636 5636 5637
5695 5688 5683 5678 5673 5669 5665 5661 5657 5654 5652 5650 5648 5645 5642 5639 5637 5635 5634 5635 5634 5632 5630 5630 5629 5630 5631 5630 5630 5631 5632 5631 5631 5632 5632 5632 5631 5631 5631 5630 5629 5628 5628
5691 5683 5677 5673 5668 5663 5659 5655 5651 5647 5644 5641 5638 5635 5633 5630 5628 5628 5626 5626 5626 5624 5621 5621 5620 5621 5621 5621 5621 5622 5622 5622 5622 5622 5624 5624 5624 5624 5624 5623 5622 5620 5620
5687 5680 5674 5668 5663 5658 5653 5649 5644 5639 5635 5632 5629 5626 5624 5624 5622 5619 5618 5617 5616 5614 5611 5611 5611 5612 5613 5613 5613 5614 5614 5613 5613 5614 5614 5615 5616 5616 5616 5616 5614 5613 5614
5682 5676 5670 5664 5657 5651 5646 5642 5637 5632 5627 5623 5620 5617 5615 5613 5611 5609 5608 5607 5605 5604 5602 5602 5603 5603 5604 5604 5605 5605 5605 5604 5605 5606 5606 5607 5608 5608 5608 5609 5608 5607 5605
5676 5669 5663 5657 5650 5644 5638 5634 5629 5624 5619 5615 5612 5609 5606 5604 5602 5600 5597 5596 5595 5594 5593 5593 5594 5595 5596 5596 5597 5598 5596 5596 5596 5595 5596 5597 5599 5600 5600 5600 5601 5601 5600
5670 5664 5657 5649 5643 5636 5631 5625 5620 5616 5611 5607 5603 5599 5596 5594 5592 5590 5588 5586 5585 5584 5584 5585 5586 5586 5587 5587 5587 5588 5588 5588 5588 5588 5589 5589 5589 5591 5591 5592 5593 5593 5593
5665 5657 5649 5642 5635 5629 5624 5618 5613 5609 5604 5599 5595 5591 5588 5585 5583 5581 5579 5577 5576 5576 5576 5577 5577 5578 5578 5578 5578 5578 5579 5579 5579 5580 5580 5580 5581 5581 5582 5583 5584 5584 5583
5657 5649 5642 5634 5628 5622 5617 5612 5606 5602 5597 5593 5589 5584 5581 5578 5575 5573 5571 5569 5568 5568 5568 5568 5568 5568 5568 5568 5568 5569 5570 5570 5570 5571 5571 5571 5572 5572 5573 5574 5576 5576 5576
5648 5642 5634 5627 5622 5616 5611 5605 5600 5595 5591 5587 5583 5578 5574 5571 5569 5566 5564 5562 5561 5561 5561 5560 5560 5560 5560 5560 5561 5561 5562 5562 5562 5562 5563 5563 5564 5564 5565 5567 5567 5568 5569
5640 5634 5628 5622 5616 5610 5604 5599 5594 5589 5585 5581 5576 5572 5568 5565 5562 5560 5558 5557 5556 5555 5555 5555 5554 5553 5553 5551 5551 5554 5555 5554 5555 5555 5556 5555 5555 5554 5556 5559 5560 5562 5563
5635 5628 5622 5616 5610 5605 5599 5593 5588 5583 5579 5575 5571 5566 5562 5560 5557 5555 5553 5552 5551 5550 5550 5549 5548 5547 5546 5542 5542 5544 5548 5548 5548 5549 5550 5550 5550 5549 5549 5550 5551 5553 5557
5629 5623 5616 5610 5604 5599 5593 5587 5582 5578 5573 5569 5565 5561 5559 5556 5553 5552 5550 5548 5547 5546 5545 5544 5544 5542 5538 5536 5537 5538 5542 5543 5542 5543 5545 5547 5546 5546 5547 5547 5547 5549 5549
5624 5617 5610 5604 5598 5593 5587 5581 5577 5573 5569 5565 5561 5558 5556 5553 5550 5548 5546 5545 5544 5542 5541 5541 5540 5538 5534 5532 5533 5534 5538 5539 5539 5539 5540 5540 5541 5541 5541 5545 5547 5548 5548
5620 5612 5605 5599 5593 5587 5582 5577 5573 5569 5566 5562 5559 5556 5554 5551 5548 5545 5543 5542 5541 5539 5538 5537 5536 5534 5532 5529 5530 5531 5536 5537 5536 5536 5536 5537 5537 5534 5535 5541 5544 5545 5544
5614 5606 5600 5594 5587 5582 5578 5574 5569 5566 5562 5559 5556 5553 5550 5548 5545 5543 5541 5540 5538 5538 5537 5535 5534 5532 5531 5528 5529 5529 5535 5535 5536 5535 5534 5531 5531 5530 5532 5537 5540 5541 5542
5607 5601 5595 5589 5584 5578 5574 5570 5566 5562 5558 5556 5553 5550 5548 5545 5543 5541 5539 5538 5538 5537 5536 5535 5533 5532 5529 5527 5527 5527 5532 5534 5535 5535 5534 5531 5528 5528 5530 5533 5536 5536 5537
5602 5597 5591 5585 5580 5575 5571 5567 5563 5559 5556 5553 5551 5548 5546 5545 5543 5540 5539 5538 5537 5537 5536 5536 5535 5534 5531 5529 5527 5527 5527 5528 5532 5533 5533 5530 5528 5528 5530 5532 5533 5534 5536
5597 5593 5588 5582 5577 5573 5569 5565 5561 5558 5555 5553 5550 5548 5546 5544 5543 5541 5540 5540 5539 5540 5541 5540 5539 5538 5536 5533 5529 5528 5529 5529 5530 5532 5529 5529 5529 5531 5533 5533 5534 5536 5541
5594 5589 5585 5580 5575 5570 5567 5563 5560 5557 5555 5552 5550 5549 5547 5546 5544 5543 5543 5542 5541 5541 5541 5541 5541 5540 5539 5538 5537 5536 5536 5533 5534 5535 5534 5533 5533 5534 5534 5536 5539 5542 5543
5591 5587 5583 5579 5574 5570 5566 5563 5559 5557 5555 5553 5552 5551 5550 5549 5546 5546 5543 5542 5540 5540 5539 5541 5541 5541 5541 5535 5531 5533 5537 5538 5538 5536 5540 5542 5544 5544 5544 5545 5545 5546 5546
5590 5586 5583 5579 5575 5571 5567 5563 5561 5558 5556 5555 5554 5555 5554 5552 5552 5550 5547 5540 5540 5537 5536 5535 5535 5539 5536 5535 5534 5534 5534 5535 5536 5539 5546 5548 5549 5549 5549 5550 5550 5550 5550